Location: Unspecified
(48.5670°N, 0.0000°E)
Time: 23:05:27
(UTC+00:00)

Vanguard 2 Rocket - Pass Details

Date: 28 August 2019
Orbit: 554 x 3327 km, 32.9° (Epoch: 19 September)

Event Time Altitude Azimuth Distance (km) Brightness Sun altitude
Rises 23:18:33 0° 181° (S) 3,869 - -31.1°
Reaches altitude 10° 23:24:04 10° 146° (SE) 3,551 - -31.3°
Maximum altitude 23:26:06 11° 132° (SE) 3,717 - -31.4°
Drops below altitude 10° 23:28:23 10° 120° (ESE) 4,043 - -31.4°
Exits shadow 23:31:13 - 107° (ESE) 4,597 10.2 -31.5°
Sets 23:36:49 0° 91° (E) 5,918 11.0 -31.6°
